Weather Service Report


867 
ASUS45 KREV 202110
RWRNV 
NEVADA REGIONAL WEATHER ROUNDUP
NATIONAL WEATHER SERVICE RENO NV
200 PM PDT MON OCT 20 2014

NOTE: "FAIR" INDICATES FEW OR NO CLOUDS BELOW 12,000 FEET WITH NO
SIGNIFICANT WEATHER AND/OR OBSTRUCTIONS TO VISIBILITY.

NVZ001-003-004-202200-
WESTERN NEVADA
  
CITY           SKY/WX    TMP DP  RH WIND       PRES   REMARKS
RENO           MOSUNNY   74  29  19 S22G32    29.89F                  
CARSON CITY    FAIR      72  30  21 W18G25    29.91F                  
MINDEN         FAIR      72  30  21 S21G33    29.93                   
SLIDE MTN        N/A     43  30  61 SW26        N/A                   
PYRAMID LAKE     N/A     73 N/A N/A S8          N/A                   
FALLON         MOSUNNY   79  29  16 S10       29.83F                  
LOVELOCK       SUNNY     75  32  20 W6        29.85F                  
HAWTHORNE      SUNNY     81  18   9 SW21G26   29.84F                  
$$

NVZ002-CAZ072-073-202200-
NORTHERN AND CENTRAL SIERRA
  
CITY           SKY/WX    TMP DP  RH WIND       PRES   REMARKS
S. LAKE TAHOE  MOSUNNY   62  31  31 SW10G24   30.00S                  
TRUCKEE        PTSUNNY   61  34  36 SW17G25   30.00F                  
SQUAW VLY 8000 NOT AVBL                                               
BLUE CANYON    MOSUNNY   55  40  56 S16G24    30.04F                  
MAMMOTH LAKES  PTSUNNY   68  21  17 SW13G21   30.06S                  
$$

NVZ030-031-036-202200-
NORTHERN NEVADA
  
CITY           SKY/WX    TMP DP  RH WIND       PRES   REMARKS
ELKO           SUNNY     77  28  16 S20G28    29.91F                  
WINNEMUCCA     SUNNY     73  28  18 S13G22    29.86F                  
WENDOVER       SUNNY     64  37  36 E6        29.97F                  
$$

NVZ035-037-202200-
CENTRAL NEVADA
  
CITY           SKY/WX    TMP DP  RH WIND       PRES   REMARKS
ELY            SUNNY     71  30  21 S17G32    30.03F                  
EUREKA           N/A     74  30  19 S23G32    29.97F                  
$$

NVZ013-014-202200-
SOUTH CENTRAL NEVADA
  
CITY           SKY/WX    TMP DP  RH WIND       PRES   REMARKS
TONOPAH        SUNNY     75  30  19 S21       29.98F                  
$$

NVZ017-020-022-202200-
SOUTHERN NEVADA
  
CITY           SKY/WX    TMP DP  RH WIND       PRES   REMARKS
LAS VEGAS      MOSUNNY   85  41  21 E7        29.84F                  
N. LAS VEGAS     N/A     83  39  21 SE8       29.87F                  
NELLIS AFB     SUNNY     84  44  24 SE6       29.86F                  
HENDERSON      SUNNY     86  43  22 NE7       29.90F                  
MERCURY        SUNNY     85  36  17 SW9       29.90F                  
$$

Return to Home page


Western Regional Climate Center, wrcc@dri.edu